N7QNM-13 Weather Reports


Display with metric or nautical units.
time (UTC)temp
F
wind
direction
speed
MPH
gust
MPH
rain 1hr
in
rain 24hr
in
rain mn
in
humidity
%
barometer
mb
20260507130030 47 90 1.0 4.0 0.00 0.00 0.00 84 1014.3
20260507125030 47 247 1.0 3.0 0.00 0.00 0.00 83 1014.1
20260507124030 47 253 2.0 4.0 0.00 0.00 0.00 83 1014.1
20260507123111 47 140 1.0 4.0 0.00 0.00 0.00 83 1014.1
20260507122030 48 68 0.0 2.0 0.00 0.00 0.00 83 1014.1
20260507121051 48 86 4.0 6.0 0.00 0.00 0.00 82 1014.1
20260507120111 48 91 1.0 4.0 0.00 0.00 0.00 81 1014.0
20260507115031 49 71 3.0 5.0 0.00 0.00 0.00 78 1014.0
20260507114031 49 55 0.0 1.0 0.00 0.00 0.00 77 1013.9
20260507113031 49 232 1.0 2.0 0.00 0.00 0.00 76 1013.8
20260507112032 49 216 0.0 1.0 0.00 0.00 0.00 76 1013.6
20260507111031 49 232 0.0 3.0 0.00 0.00 0.00 75 1013.6
20260507110031 50 108 0.0 3.0 0.00 0.00 0.00 73 1013.6
20260507105032 51 105 0.0 2.0 0.00 0.00 0.00 73 1013.6
20260507104052 52 99 0.0 1.0 0.00 0.00 0.00 72 1013.7
20260507103032 52 155 0.0 2.0 0.00 0.00 0.00 70 1013.8
20260507102032 53 212 0.0 2.0 0.00 0.00 0.00 68 1013.8
20260507101032 54 81 2.0 4.0 0.00 0.00 0.00 68 1013.7
20260507100032 55 210 0.0 2.0 0.00 0.00 0.00 65 1013.6
20260507095032 56 92 1.0 4.0 0.00 0.00 0.00 63 1013.6
20260507094052 58 63 2.0 5.0 0.00 0.00 0.00 59 1013.6
20260507093032 59 133 0.0 0.0 0.00 0.00 0.00 57 1013.6
20260507092033 61 256 3.0 5.0 0.00 0.00 0.00 55 1013.5
20260507091033 62 238 3.0 5.0 0.00 0.00 0.00 53 1013.5
20260507090033 62 210 3.0 7.0 0.00 0.00 0.00 52 1013.5
20260507085033 62 204 3.0 7.0 0.00 0.00 0.00 52 1013.4
20260507084033 61 211 2.0 5.0 0.00 0.00 0.00 52 1013.4
20260507083034 61 220 3.0 6.0 0.00 0.00 0.00 53 1013.4
20260507082033 61 205 2.0 4.0 0.00 0.00 0.00 52 1013.4
20260507081054 60 193 2.0 5.0 0.00 0.00 0.00 53 1013.4
20260507080034 61 159 4.0 5.0 0.00 0.00 0.00 53 1013.4
20260507075033 62 202 0.0 4.0 0.00 0.00 0.00 51 1013.4
20260507074034 63 198 1.0 4.0 0.00 0.00 0.00 50 1013.3
20260507073034 64 253 1.0 3.0 0.00 0.00 0.00 49 1013.4
20260507072034 64 242 0.0 3.0 0.00 0.00 0.00 48 1013.2
20260507071115 64 217 3.0 8.0 0.00 0.00 0.00 47 1013.1
20260507070054 64 213 2.0 4.0 0.00 0.00 0.00 47 1013.0
20260507065034 64 169 3.0 6.0 0.00 0.00 0.00 46 1013.0
20260507064055 65 154 1.0 4.0 0.00 0.00 0.00 44 1012.8
20260507063035 65 231 0.0 3.0 0.00 0.00 0.00 44 1012.5
20260507062035 65 245 3.0 5.0 0.00 0.00 0.00 44 1012.4
20260507061035 67 240 3.0 5.0 0.00 0.00 0.00 43 1012.5
20260507060036 68 284 0.0 3.0 0.00 0.00 0.00 40 1012.6
20260507055035 69 271 2.0 5.0 0.00 0.00 0.00 39 1012.6
20260507054035 69 229 5.0 10.0 0.00 0.00 0.00 38 1012.4
20260507053036 69 232 4.0 8.0 0.00 0.00 0.00 39 1012.5
20260507052035 69 212 2.0 5.0 0.00 0.00 0.00 39 1012.5
20260507051035 70 254 4.0 7.0 0.00 0.00 0.00 39 1012.3
20260507050056 70 248 7.0 11.0 0.00 0.00 0.00 39 1012.1
20260507045036 71 242 5.0 11.0 0.00 0.00 0.00 38 1012.1
20260507044036 71 241 6.0 8.0 0.00 0.00 0.00 39 1012.1
20260507043036 72 277 7.0 9.0 0.00 0.00 0.00 38 1012.0
20260507042037 73 261 8.0 12.0 0.00 0.00 0.00 36 1012.0
20260507041036 73 277 10.0 15.0 0.00 0.00 0.00 35 1011.8
20260507040036 72 283 10.0 14.0 0.00 0.00 0.00 35 1011.7
20260507035037 71 285 7.0 13.0 0.00 0.00 0.00 38 1011.6
20260507034038 72 266 4.0 6.0 0.00 0.00 0.00 39 1011.6
20260507033037 73 256 4.0 6.0 0.00 0.00 0.00 37 1011.5
20260507032057 74 237 3.0 6.0 0.00 0.00 0.00 36 1011.5
20260507031037 74 199 2.0 4.0 0.00 0.00 0.00 36 1011.5
20260507030037 74 220 2.0 5.0 0.00 0.00 0.00 36 1011.5
20260507025038 74 234 2.0 5.0 0.00 0.00 0.00 37 1011.4
20260507024038 75 301 3.0 6.0 0.00 0.00 0.00 36 1011.4
20260507023038 75 301 3.0 7.0 0.00 0.00 0.00 36 1011.3
20260507022038 76 306 6.0 10.0 0.00 0.00 0.00 35 1011.3
20260507021038 77 306 6.0 11.0 0.00 0.00 0.00 34 1011.2
20260507020038 77 304 10.0 15.0 0.00 0.00 0.00 34 1011.2
20260507015038 78 305 9.0 16.0 0.00 0.00 0.00 33 1011.2
20260507014039 78 303 10.0 18.0 0.00 0.00 0.00 33 1011.1
20260507013059 79 301 7.0 13.0 0.00 0.00 0.00 33 1011.2
20260507012038 79 293 12.0 20.0 0.00 0.00 0.00 32 1011.2
20260507011039 80 293 11.0 19.0 0.00 0.00 0.00 32 1011.1
20260507010038 81 292 16.0 21.0 0.00 0.00 0.00 31 1011.0
20260507005038 81 288 16.0 22.0 0.00 0.00 0.00 31 1010.8
20260507004059 82 294 13.0 25.0 0.00 0.00 0.00 32 1010.7
20260507003039 83 288 14.0 23.0 0.00 0.00 0.00 31 1010.5
20260507002039 84 280 15.0 23.0 0.00 0.00 0.00 31 1010.2
20260507001039 84 285 13.0 22.0 0.00 0.00 0.00 31 1010.0
20260507000039 85 292 12.0 19.0 0.00 0.00 0.00 31 1009.8
20260506235039 87 288 14.0 21.0 0.00 0.00 0.00 30 1009.6
20260506234040 88 275 5.0 9.0 0.00 0.00 0.00 31 1009.5
20260506233039 88 284 1.0 3.0 0.00 0.00 0.00 31 1009.5
20260506232040 88 300 4.0 10.0 0.00 0.00 0.00 31 1009.6
20260506231040 88 235 2.0 8.0 0.00 0.00 0.00 30 1009.7
20260506230040 88 322 1.0 5.0 0.00 0.00 0.00 31 1009.8
20260506225100 87 253 1.0 5.0 0.00 0.00 0.00 31 1009.9
20260506224040 86 76 1.0 6.0 0.00 0.00 0.00 32 1010.1
20260506223101 86 214 4.0 11.0 0.00 0.00 0.00 33 1010.2
20260506222040 87 226 3.0 8.0 0.00 0.00 0.00 35 1010.4
20260506221041 87 198 4.0 9.0 0.00 0.00 0.00 35 1010.4
20260506220041 87 172 2.0 11.0 0.00 0.00 0.00 34 1010.5
20260506215041 86 131 2.0 8.0 0.00 0.00 0.00 35 1010.7
20260506214041 85 158 7.0 14.0 0.00 0.00 0.00 34 1010.6
20260506213041 86 158 7.0 16.0 0.00 0.00 0.00 34 1010.7
20260506212101 85 175 8.0 12.0 0.00 0.00 0.00 34 1010.7
20260506211041 85 138 5.0 12.0 0.00 0.00 0.00 34 1010.7
20260506210041 85 178 5.0 12.0 0.00 0.00 0.00 34 1010.8
20260506205041 86 171 8.0 16.0 0.00 0.00 0.00 34 1010.8
20260506204042 85 177 9.0 17.0 0.00 0.00 0.00 34 1010.9
20260506203042 85 167 7.0 13.0 0.00 0.00 0.00 35 1010.9
20260506202042 85 166 9.0 17.0 0.00 0.00 0.00 34 1010.9
20260506201042 84 189 8.0 16.0 0.00 0.00 0.00 35 1011.0
20260506200042 83 129 6.0 12.0 0.00 0.00 0.00 36 1011.2
20260506195042 83 166 7.0 14.0 0.00 0.00 0.00 36 1011.3
20260506194043 83 174 8.0 14.0 0.00 0.00 0.00 37 1011.5
20260506193043 82 164 10.0 16.0 0.00 0.00 0.00 37 1011.6
20260506192042 82 166 8.0 13.0 0.00 0.00 0.00 38 1011.8
20260506191043 81 179 9.0 15.0 0.00 0.00 0.00 38 1011.8
20260506190043 80 165 8.0 14.0 0.00 0.00 0.00 40 1011.9
20260506185104 79 167 8.0 14.0 0.00 0.00 0.00 43 1011.9
20260506184043 79 171 8.0 15.0 0.00 0.00 0.00 43 1011.9
20260506183103 78 169 7.0 16.0 0.00 0.00 0.00 44 1012.1
20260506182103 78 165 3.0 9.0 0.00 0.00 0.00 45 1012.3
20260506181043 78 164 7.0 16.0 0.00 0.00 0.00 45 1012.3
20260506180044 78 171 9.0 15.0 0.00 0.00 0.00 45 1012.3
20260506175043 78 161 3.0 9.0 0.00 0.00 0.00 45 1012.4
20260506174043 78 180 3.0 10.0 0.00 0.00 0.00 45 1012.4
20260506173104 78 154 4.0 13.0 0.00 0.00 0.00 44 1012.4
20260506172044 77 188 4.0 14.0 0.00 0.00 0.00 45 1012.5
20260506171044 75 297 2.0 5.0 0.00 0.00 0.00 48 1012.6
20260506170104 75 34 4.0 8.0 0.00 0.00 0.00 47 1012.7
20260506165044 75 34 1.0 6.0 0.00 0.00 0.00 46 1012.8
20260506164044 75 47 4.0 9.0 0.00 0.00 0.00 47 1012.8
20260506163045 75 86 1.0 7.0 0.00 0.00 0.00 46 1012.9
20260506162044 75 52 1.0 6.0 0.00 0.00 0.00 45 1013.0
20260506161105 74 48 0.0 4.0 0.00 0.00 0.00 46 1013.1
20260506160045 74 81 1.0 4.0 0.00 0.00 0.00 48 1013.1
20260506155045 73 51 1.0 5.0 0.00 0.00 0.00 50 1013.0
20260506154045 72 31 0.0 2.0 0.00 0.00 0.00 51 1013.0
20260506153046 71 55 1.0 4.0 0.00 0.00 0.00 53 1012.9
20260506152046 69 0.0 0.0 0.00 0.00 0.00 55 1013.0
20260506151106 68 32 0.0 1.0 0.00 0.00 0.00 58 1013.0
20260506150046 67 43 1.0 3.0 0.00 0.00 0.00 60 1013.0
20260506145046 66 0.0 0.0 0.00 0.00 0.00 62 1013.0
20260506144046 65 46 0.0 3.0 0.00 0.00 0.00 64 1013.0
20260506143046 63 18 0.0 2.0 0.00 0.00 0.00 68 1013.0
20260506142046 61 350 0.0 1.0 0.00 0.00 0.00 71 1012.9
20260506141046 60 245 0.0 3.0 0.00 0.00 0.00 74 1012.8
20260506140106 58 0.0 0.0 0.00 0.00 0.00 78 1012.8
20260506135047 56 0.0 0.0 0.00 0.00 0.00 79 1012.7
20260506134047 54 107 0.0 2.0 0.00 0.00 0.00 81 1012.6
20260506133048 54 140 1.0 4.0 0.00 0.00 0.00 82 1012.6
20260506132047 53 119 0.0 1.0 0.00 0.00 0.00 83 1012.4
20260506131047 52 114 4.0 6.0 0.00 0.00 0.00 84 1012.3